sat.trackr.live / text

‹ back to catalog

STARLINK-4088

NORAD 53155 · 2022-083Z

PAYLOAD ACTIVE UNKNOWN

§ Identity

Operator
Country
US
Launch date
2022-07-17
Launch site
AFETR
Launch vehicle
Mass (kg)
RCS (m²)

Purposes: comms

External: N2YO · Heavens-Above · Gunter

§ Orbital elements

Epoch: 2026-05-24T15:13:44.893632Z

Period
95.44 min
Inclination
53.2130°
Eccentricity
0.0001191
Mean motion
15.08840678 rev/d
Perigee alt
538.9 km
Apogee alt
540.6 km
Semi-major
6,917.9 km
B*
4.1711e-5
RAAN
183.1899°
Arg perigee
91.1682°
Mean anomaly
268.9446°
Rev number
21,346

§ Raw data

STARLINK-40881 53155U 22083Z   26144.63454738  .00000376  00000+0  41711-4 0  99942 53155  53.2130 183.1899 0001191  91.1682 268.9446 15.08840678213465

JSON: /api/v1/satellites/53155 · /tle

For live sub-satellite position, see the globe view (requires WebGL).

§ Visibility from observer

Set your observer location to see the next 7 days of passes ≥ 10°. The values pass through the URL so the page stays shareable.

No JS? Fill the form by hand. The geolocation button needs JavaScript.